Location: Wanzleben
(52.0609°N, 11.4408°E)
Time: 06:31:39
(UTC+00:00)

Cosmos 1048 Rocket - Pass Details

Date: 18 September 2020
Orbit: 743 x 792 km, 74.0° (Epoch: 20 October)

Event Time Altitude Azimuth Distance (km) Brightness Sun altitude
Rises 19:23:04 0° 332° (NNW) 3,256 8.2 -18.7°
Reaches altitude 10° 19:25:28 10° 329° (NNW) 2,332 7.4 -19.1°
Maximum altitude 19:30:40 60° 251° (WSW) 893 4.5 -19.8°
Enters shadow 19:34:10 21° 177° (S) 1,704 5.5 -20.2°
